Simultaneous Nadir Overpasses (SNOs) Predictions

Prediction of SNOs over PacNW region [( 10.00, 139.50) to ( 22.70, 165.60)] between AQUA and NPP Satellites:

Table of predicted SNOs over PacNW region for the next 30.0 days since TLE Epoch: 7/5/2019
Index Date (AQUA) Time (AQUA) AQUA Lat,Lon Date (NPP) Time (NPP) NPP Lat,Lon Distance(km) Time Diff (sec)
1 07/09/2019 15:59:16 22.61, 147.50 07/09/2019 16:02:02 23.28, 144.53 312.76 166
2 07/17/2019 15:09:46 22.62, 159.86 07/17/2019 15:11:20 23.21, 157.20 281.08 94
3 07/20/2019 03:31:35 22.67, 147.55 07/20/2019 03:28:06 24.40, 145.28 301.26 209
4 07/25/2019 15:59:08 22.63, 147.52 07/25/2019 16:02:05 23.29, 144.53 314.73 177




NCC Satellite Simultaneous Nadir Overpasses (SNOs) Prediction Service
